When you browse on this site, cookies collect data to enhance your experience and personalize the content and advertising you see.
Visit our Privacy Policy to learn more. By continuing to use the site, you agree to this use of cookies and data.
  • In Hungary
  • List of Countries
  • For 7 days
  • Water Temperature
  • Satellite Maps
  • Weather Map
  • News
  • Weather Widgets
  • user-avatar
    Login

    Hourly Weather L'Alqueria de la Comtessa

    Today, 19 April, Friday

    Time Temperature Precipitation Wind Pressure Humidity
    00:00 +15°C° 0 mm 2 mps 757 mmHg 92%
    01:00 +15°C° 0.3 mm 1 mps 757 mmHg 91%
    02:00 +15°C° 0.3 mm 1 mps 757 mmHg 90%
    03:00 +15°C° 0.3 mm 1 mps 757 mmHg 89%
    04:00 +15°C° 0.2 mm 1 mps 757 mmHg 87%
    05:00 +15°C° 0.2 mm 1 mps 757 mmHg 86%
    06:00 +14°C° 0 mm 3 mps 758 mmHg 84%
    07:00 +14°C° 0.7 mm 3 mps 758 mmHg 85%
    08:00 +15°C° 0.7 mm 2 mps 758 mmHg 85%
    09:00 +15°C° 0.7 mm 2 mps 758 mmHg 86%
    10:00 +14°C° 1.3 mm 2 mps 758 mmHg 85%
    11:00 +14°C° 1.3 mm 2 mps 758 mmHg 85%
    12:00 +12°C° 1.3 mm 3 mps 759 mmHg 85%
    13:00 +12°C° 1.3 mm 3 mps 759 mmHg 86%
    14:00 +12°C° 1.3 mm 3 mps 758 mmHg 87%
    15:00 +12°C° 1.3 mm 3 mps 758 mmHg 88%
    16:00 +13°C° 0.9 mm 5 mps 758 mmHg 91%
    17:00 +14°C° 0.9 mm 6 mps 758 mmHg 93%
    18:00 +14°C° 0.9 mm 7 mps 758 mmHg 96%
    19:00 +15°C° 0.9 mm 8 mps 758 mmHg 95%
    20:00 +15°C° 0.9 mm 9 mps 758 mmHg 95%
    21:00 +15°C° 0.9 mm 9 mps 758 mmHg 94%
    22:00 +14°C° 1.8 mm 10 mps 758 mmHg 94%
    23:00 +14°C° 1.8 mm 10 mps 758 mmHg 95%

    Tomorrow, 20 April, Saturday

    Time Temperature Precipitation Wind Pressure Humidity
    00:00 +14°C° 1.8 mm 10 mps 758 mmHg 95%
    01:00 +14°C° 1.9 mm 11 mps 757 mmHg 94%
    02:00 +14°C° 1.9 mm 11 mps 757 mmHg 92%
    03:00 +13°C° 1.9 mm 11 mps 756 mmHg 91%
    04:00 +13°C° 1.6 mm 12 mps 756 mmHg 90%
    05:00 +13°C° 1.6 mm 12 mps 756 mmHg 89%
    06:00 +13°C° 1.6 mm 12 mps 756 mmHg 88%
    07:00 +13°C° 1.7 mm 12 mps 756 mmHg 89%
    08:00 +13°C° 1.7 mm 12 mps 756 mmHg 89%
    09:00 +13°C° 1.7 mm 11 mps 757 mmHg 90%
    10:00 +13°C° 1.5 mm 11 mps 757 mmHg 90%
    11:00 +13°C° 1.5 mm 11 mps 757 mmHg 91%
    12:00 +13°C° 1.5 mm 10 mps 757 mmHg 91%
    13:00 +13°C° 1.3 mm 10 mps 757 mmHg 91%
    14:00 +13°C° 1.3 mm 9 mps 756 mmHg 92%
    15:00 +13°C° 1.3 mm 9 mps 756 mmHg 92%
    16:00 +13°C° 1.2 mm 9 mps 756 mmHg 92%
    17:00 +13°C° 1.2 mm 8 mps 756 mmHg 93%
    18:00 +13°C° 1.2 mm 8 mps 756 mmHg 94%
    19:00 +14°C° 1 mm 7 mps 756 mmHg 94%
    20:00 +14°C° 1 mm 6 mps 757 mmHg 94%
    21:00 +14°C° 1 mm 6 mps 757 mmHg 95%
    22:00 +14°C° 0.4 mm 5 mps 757 mmHg 95%
    23:00 +14°C° 0.4 mm 5 mps 756 mmHg 95%

    Day after tomorrow, 21 April, Sunday

    Time Temperature Precipitation Wind Pressure Humidity
    00:00 +14°C° 0.4 mm 5 mps 756 mmHg 95%
    01:00 +14°C° 0.4 mm 5 mps 755 mmHg 95%
    02:00 +14°C° 0.4 mm 4 mps 755 mmHg 96%
    03:00 +14°C° 0.4 mm 4 mps 754 mmHg 96%
    04:00 +14°C° 0.4 mm 4 mps 754 mmHg 96%
    05:00 +14°C° 0.4 mm 4 mps 754 mmHg 96%
    06:00 +14°C° 0.4 mm 5 mps 754 mmHg 95%
    07:00 +14°C° 0.3 mm 5 mps 754 mmHg 94%
    08:00 +15°C° 0.3 mm 5 mps 753 mmHg 93%
    09:00 +15°C° 0.3 mm 6 mps 753 mmHg 92%
    10:00 +15°C° 0.1 mm 6 mps 753 mmHg 91%
    11:00 +15°C° 0.1 mm 7 mps 753 mmHg 91%
    12:00 +15°C° 0.1 mm 7 mps 752 mmHg 90%
    13:00 +15°C° 0.4 mm 8 mps 752 mmHg 91%
    14:00 +15°C° 0.4 mm 8 mps 752 mmHg 91%
    15:00 +13°C° 0.4 mm 9 mps 751 mmHg 92%
    16:00 +13°C° 0.9 mm 9 mps 751 mmHg 92%
    17:00 +13°C° 0.9 mm 9 mps 751 mmHg 92%
    18:00 +13°C° 0.9 mm 9 mps 751 mmHg 92%
    19:00 +13°C° 0.4 mm 8 mps 751 mmHg 92%
    20:00 +13°C° 0.4 mm 8 mps 751 mmHg 91%
    21:00 +13°C° 0.4 mm 8 mps 751 mmHg 91%
    22:00 +13°C° 0.6 mm 9 mps 751 mmHg 91%
    23:00 +13°C° 0.6 mm 9 mps 750 mmHg 91%

    22 April, Monday

    Time Temperature Precipitation Wind Pressure Humidity
    00:00 +13°C° 0.6 mm 10 mps 749 mmHg 91%
    01:00 +13°C° 0.7 mm 10 mps 749 mmHg 91%
    02:00 +13°C° 0.7 mm 9 mps 748 mmHg 90%
    03:00 +13°C° 0.7 mm 9 mps 748 mmHg 90%
    04:00 +12°C° 0.6 mm 9 mps 747 mmHg 89%
    05:00 +12°C° 0.6 mm 9 mps 747 mmHg 89%
    06:00 +12°C° 0.6 mm 9 mps 747 mmHg 88%
    07:00 +12°C° 0.8 mm 9 mps 747 mmHg 86%
    08:00 +12°C° 0.8 mm 8 mps 747 mmHg 84%
    09:00 +12°C° 0.8 mm 8 mps 747 mmHg 82%
    10:00 +13°C° 0.1 mm 8 mps 747 mmHg 77%
    11:00 +15°C° 0.1 mm 7 mps 747 mmHg 72%
    12:00 +16°C° 0.1 mm 6 mps 747 mmHg 68%
    13:00 +17°C° 0.1 mm 6 mps 747 mmHg 67%
    14:00 +17°C° 0.1 mm 5 mps 747 mmHg 66%
    15:00 +18°C° 0.1 mm 4 mps 747 mmHg 65%
    16:00 +18°C° 0 mm 3 mps 747 mmHg 68%
    17:00 +17°C° 0 mm 2 mps 747 mmHg 71%
    18:00 +18°C° 0 mm 1 mps 747 mmHg 74%
    19:00 +16°C° 0 mm 1 mps 748 mmHg 78%
    20:00 +15°C° 0 mm 2 mps 748 mmHg 82%
    21:00 +14°C° 0 mm 2 mps 748 mmHg 85%
    22:00 +14°C° 0 mm 2 mps 748 mmHg 86%
    23:00 +14°C° 0 mm 2 mps 748 mmHg 87%

    23 April, Tuesday

    Time Temperature Precipitation Wind Pressure Humidity
    00:00 +14°C° 0 mm 2 mps 747 mmHg 87%
    01:00 +14°C° 0 mm 2 mps 747 mmHg 85%
    02:00 +14°C° 0 mm 2 mps 746 mmHg 83%
    03:00 +14°C° 0 mm 2 mps 746 mmHg 82%
    04:00 +15°C° 0 mm 2 mps 746 mmHg 80%
    05:00 +15°C° 0 mm 2 mps 746 mmHg 78%
    06:00 +15°C° 0 mm 2 mps 746 mmHg 77%
    07:00 +17°C° 0 mm 2 mps 746 mmHg 70%
    08:00 +19°C° 0 mm 2 mps 746 mmHg 63%
    09:00 +20°C° 0 mm 2 mps 747 mmHg 56%
    10:00 +21°C° 0 mm 3 mps 747 mmHg 55%
    11:00 +22°C° 0 mm 4 mps 747 mmHg 54%
    12:00 +23°C° 0 mm 5 mps 747 mmHg 53%
    13:00 +22°C° 0.5 mm 5 mps 747 mmHg 57%
    14:00 +21°C° 0.5 mm 5 mps 747 mmHg 60%
    15:00 +20°C° 0.5 mm 6 mps 747 mmHg 64%
    16:00 +19°C° 0.4 mm 5 mps 747 mmHg 63%
    17:00 +18°C° 0.4 mm 4 mps 748 mmHg 63%
    18:00 +17°C° 0.4 mm 4 mps 748 mmHg 63%
    19:00 +17°C° 0 mm 3 mps 749 mmHg 64%
    20:00 +16°C° 0 mm 3 mps 750 mmHg 65%
    21:00 +14°C° 0 mm 3 mps 751 mmHg 66%
    22:00 +14°C° 0.1 mm 3 mps 751 mmHg 67%
    23:00 +14°C° 0.1 mm 3 mps 752 mmHg 68%

    24 April, Wednesday

    Time Temperature Precipitation Wind Pressure Humidity
    00:00 +14°C° 0.1 mm 3 mps 752 mmHg 68%
    01:00 +13°C° 0.3 mm 3 mps 752 mmHg 68%
    02:00 +13°C° 0.3 mm 3 mps 752 mmHg 68%
    03:00 +12°C° 0.3 mm 3 mps 752 mmHg 68%
    04:00 +12°C° 0 mm 3 mps 753 mmHg 68%
    05:00 +12°C° 0 mm 3 mps 753 mmHg 67%
    06:00 +12°C° 0 mm 4 mps 754 mmHg 67%
    07:00 +13°C° 0 mm 4 mps 754 mmHg 59%
    08:00 +15°C° 0 mm 4 mps 754 mmHg 51%
    09:00 +17°C° 0 mm 4 mps 755 mmHg 43%
    10:00 +18°C° 0 mm 4 mps 755 mmHg 42%
    11:00 +19°C° 0 mm 4 mps 755 mmHg 42%
    12:00 +20°C° 0 mm 4 mps 755 mmHg 41%
    13:00 +20°C° 0 mm 4 mps 755 mmHg 40%
    14:00 +21°C° 0 mm 5 mps 755 mmHg 40%
    15:00 +21°C° 0 mm 5 mps 755 mmHg 39%
    16:00 +20°C° 0 mm 5 mps 755 mmHg 43%
    17:00 +20°C° 0 mm 5 mps 755 mmHg 48%
    18:00 +19°C° 0 mm 5 mps 756 mmHg 52%
    19:00 +17°C° 0 mm 5 mps 756 mmHg 55%
    20:00 +15°C° 0 mm 5 mps 757 mmHg 58%
    21:00 +14°C° 0 mm 5 mps 758 mmHg 60%
    22:00 +14°C° 0 mm 4 mps 758 mmHg 59%
    23:00 +14°C° 0 mm 4 mps 757 mmHg 57%
    Show more